Job Board

Job TitleAgencyCityPostedDeadline
Assistant Program Manager (wage increase $16/hr)Hammer ResidencesWayzata11/26/202112/31/2021Learn More11/26/2021 12:00:00 AM
Direct Support Professional (wage increase $15/hr)Hammer ResidencesWayzata, Plymouth, Crystal, Minnetonka, St. Louis Park, New Hope, Golden Valley, Maple Grove, EP11/26/202112/31/2021Learn More11/26/2021 12:00:00 AM
Monitoring SpecialistSengistixMendota Heights, MN11/18/202112/31/2021Learn More11/18/2021 12:00:00 AM
Director of Residential Services - ICFRange Center, IncChisholm11/16/202112/11/2021Learn More11/16/2021 12:00:00 AM
Human Resources GeneralistRange Center, IncChisholm11/16/202112/11/2021Learn More11/16/2021 12:00:00 AM
Hiring and Training Assistant DirectorIntegrity Living Options Inc.Minneapolis11/10/202111/30/2021Learn More11/10/2021 12:00:00 AM
Consultant - Designated ManagerSTAR ServicesSaint Paul11/08/202112/08/2021Learn More11/8/2021 12:00:00 AM
Direct Support Professional (DSP) - Part-Time or Full-TimeLiving Well Disability ServicesTwin Cities Metro Area11/01/202111/30/2021Learn More11/1/2021 12:00:00 AM
Direct Support Professional (DSP) - Part-Time In-Home SupportLiving Well Disability ServicesTwin Cities Metro Area11/01/202111/30/2021Learn More11/1/2021 12:00:00 AM
Direct Support Professional (DSP) - Full-Time Weekends OnlyLiving Well Disability ServicesTwin Cities Metro Area11/01/202111/30/2021Learn More11/1/2021 12:00:00 AM
Certified Nursing Assistant (CNA) - Part-Time or Full-TimeLiving Well Disability ServicesTwin Cities Metro Area11/01/202111/30/2021Learn More11/1/2021 12:00:00 AM
NurseLiving Well Disability ServicesMendota Heights11/01/202111/30/2021Learn More11/1/2021 12:00:00 AM
Program ManagerLiving Well Disability ServicesTwins Cities Metro Area11/01/202111/30/2021Learn More11/1/2021 12:00:00 AM
Assistant Program ManagerLiving Well Disability ServicesTwins Cities Metro Area11/01/202111/30/2021Learn More11/1/2021 12:00:00 AM
Program Coordinator, Supervised LivingFraserBrooklyn Park, Maple Grove11/01/202112/01/2021Learn More11/1/2021 12:00:00 AM
Program Coordinator, Supportive LivingFraserMinnetonka, St. Paul11/01/202112/01/2021Learn More11/1/2021 12:00:00 AM
Direct Support Professional ($500-$1,000 Hiring Bonus!)FraserBloomington, Richfield, Plymouth, Eden Prairie, Golden Valley, Hopkins, Coon Rapids, Maple Grove11/01/202112/01/2021Learn More11/1/2021 12:00:00 AM
Nurse (Registered Nurse or Licensed Practical Nurse)The Lutheran Home Association: Hope Residence 10/20/202101/01/2022Learn More10/20/2021 12:00:00 AM
Program ManagerThe Lutheran Home AssociationBelle Plaine10/20/202101/01/2022Learn More10/20/2021 12:00:00 AM
Direct Support ProfessionaThe Lutheran Home AssociationBelle Plaine10/20/202101/01/2022Learn More10/20/2021 12:00:00 AM
Program Manager (Residential)Mains'l ServicesMonticello10/11/202112/13/2021Learn More10/11/2021 12:00:00 AM
Direct Support ProfessionalMains'l ServicesAnoka10/11/202112/13/2021Learn More10/11/2021 12:00:00 AM
Direct Support ProfessionalMains'l ServicesMonticello10/11/202112/13/2021Learn More10/11/2021 12:00:00 AM
Direct Support ProfessionalMains'l ServicesBig Lake10/11/202112/13/2021Learn More10/11/2021 12:00:00 AM
Direct Support ProfessionalMains'l ServicesCoon Rapids10/11/202112/13/2021Learn More10/11/2021 12:00:00 AM
Direct Support ProfessionalMains'l ServicesOakdale10/11/202112/13/2021Learn More10/11/2021 12:00:00 AM
Direct Support ProfessionalMains'l ServicesRochester10/11/202112/13/2021Learn More10/11/2021 12:00:00 AM
Support CoordinatorMains'l ServicesCoon Rapids10/11/202112/13/2021Learn More10/11/2021 12:00:00 AM
Direct Support Professional (DSP)Mains'l ServicesBrooklyn Park10/11/202112/13/2021Learn More10/11/2021 12:00:00 AM
Admissions & Advocate ManagerHiawatha Homes Inc.Rochester, MN09/08/202112/31/2021Learn More9/8/2021 12:00:00 AM
Direct Support ProfessionalHowry Residential ServicesFridley08/24/202112/31/2021Learn More8/24/2021 12:00:00 AM
Behavior Analyst (Positive Support Analyst) $1000 Hiring BonusHowry Residential ServicesMendota Heights08/24/202112/31/2021Learn More8/24/2021 12:00:00 AM
Program CoordinatorHowry Residential ServicesMendota Heights08/24/202112/31/2021Learn More8/24/2021 12:00:00 AM
Area DirectorBethesda Lutheran CommunitiesCoon Rapids08/19/202112/18/2021Learn More8/19/2021 12:00:00 AM
PCA/DSPAccessible SpaceCoon Rapids, St Paul, Minneapolis, Bloomington, St Anthony, Falcon Heights, White Bear07/23/202111/30/2021Learn More7/23/2021 12:00:00 AM
Direct Support ProfessionalREM a partner of The MENTOR NetworkPositions throughout Minnesota07/19/202112/31/2021Learn More7/19/2021 12:00:00 AM
Program SupervisorREM River Bluffs/The Mentor NetworkApple Valley07/19/202112/31/2021Learn More7/19/2021 12:00:00 AM
Job CoachTrillium Works!Duluh06/23/202112/31/2021Learn More6/23/2021 12:00:00 AM
Direct Support ProfessionalArrowhead House Foster CareDuluth06/02/202112/31/2021Learn More6/2/2021 12:00:00 AM
Awake Overnight Direct Service ProfessionalTrillium ServicesDuluth05/21/202111/30/2021Learn More5/21/2021 12:00:00 AM
Supervisor (Designated Coordinator)Trillium ServicesDuluth, MN05/19/202112/31/2021Learn More5/19/2021 12:00:00 AM
Float Direct Service ProfessionalTrillium ServicesDuluth, MN05/19/202111/30/2021Learn More5/19/2021 12:00:00 AM
Nursing AssistantDungarvinVadnais Heights, Bloomington, Eden Prairie and Minneapolis12/31/202012/31/2021Learn More12/31/2020 12:00:00 AM
Direct Support StaffDungarvinHennepin County, Ramsey County, Washington County, Dakota County, Benton County, and Chisago County12/31/202012/31/2021Learn More12/31/2020 12:00:00 AM
Mental Health SpecialistDungarvinMonticello, Otsego, Elk River, Sauk Rapids, Spring Valley, Mora, Howard Lake and North Branch12/31/202012/31/2021Learn More12/31/2020 12:00:00 AM
Community Support SpecialistDungarvinTwin City Wide12/30/202012/31/2021Learn More12/30/2020 12:00:00 AM